TimeCDT,TemperatureF,Dew PointF,Humidity,Sea Level PressureIn,VisibilityMPH,Wind Direction,Wind SpeedMPH,Gust SpeedMPH,PrecipitationIn,Events,Conditions,WindDirDegrees,DateUTC
12:15 AM,41.0,39.2,93,30.16,10.0,Calm,Calm,-,N/A,,Clear,0,2013-05-13 05:15:00
12:35 AM,42.8,39.2,87,30.16,10.0,Calm,Calm,-,N/A,,Clear,0,2013-05-13 05:35:00
12:55 AM,39.2,37.4,93,30.15,10.0,WSW,4.6,-,N/A,,Clear,240,2013-05-13 05:55:00
1:15 AM,39.2,37.4,93,30.15,10.0,WSW,4.6,-,N/A,,Clear,240,2013-05-13 06:15:00
1:35 AM,39.2,35.6,87,30.15,10.0,WSW,4.6,-,N/A,,Clear,240,2013-05-13 06:35:00
1:55 AM,39.2,37.4,93,30.15,10.0,WSW,3.5,-,N/A,,Clear,250,2013-05-13 06:55:00
2:15 AM,39.2,37.4,93,30.15,10.0,WSW,3.5,-,N/A,,Clear,250,2013-05-13 07:15:00
2:35 AM,39.2,37.4,93,30.15,10.0,WSW,4.6,-,N/A,,Clear,250,2013-05-13 07:35:00
2:55 AM,39.2,35.6,87,30.15,10.0,WSW,4.6,-,N/A,,Clear,240,2013-05-13 07:55:00
3:15 AM,37.4,35.6,93,30.15,10.0,WSW,4.6,-,N/A,,Clear,240,2013-05-13 08:15:00
3:35 AM,39.2,35.6,87,30.15,10.0,WSW,3.5,-,N/A,,Clear,240,2013-05-13 08:35:00
3:55 AM,37.4,33.8,87,30.15,10.0,Calm,Calm,-,N/A,,Clear,0,2013-05-13 08:55:00
4:15 AM,39.2,33.8,81,30.15,10.0,Calm,Calm,-,N/A,,Clear,0,2013-05-13 09:15:00
4:35 AM,39.2,33.8,81,30.15,10.0,Calm,Calm,-,N/A,,Clear,0,2013-05-13 09:35:00
4:55 AM,39.2,33.8,81,30.15,10.0,SSW,3.5,-,N/A,,Clear,200,2013-05-13 09:55:00
5:15 AM,37.4,35.6,93,30.15,10.0,Calm,Calm,-,N/A,,Clear,0,2013-05-13 10:15:00
5:35 AM,39.2,37.4,93,30.15,10.0,Calm,Calm,-,N/A,,Clear,0,2013-05-13 10:35:00
5:55 AM,37.4,35.6,93,30.16,10.0,Calm,Calm,-,N/A,,Clear,0,2013-05-13 10:55:00
6:15 AM,37.4,35.6,93,30.16,10.0,SW,3.5,-,N/A,,Clear,230,2013-05-13 11:15:00
6:35 AM,39.2,37.4,93,30.17,10.0,WSW,6.9,-,N/A,,Clear,250,2013-05-13 11:35:00
6:55 AM,42.8,37.4,81,30.18,10.0,WSW,5.8,-,N/A,,Clear,250,2013-05-13 11:55:00
7:15 AM,44.6,37.4,76,30.18,10.0,WSW,5.8,-,N/A,,Clear,250,2013-05-13 12:15:00
7:35 AM,46.4,35.6,66,30.19,10.0,WSW,6.9,-,N/A,,Clear,250,2013-05-13 12:35:00
7:55 AM,48.2,37.4,66,30.20,10.0,West,6.9,-,N/A,,Clear,260,2013-05-13 12:55:00
8:15 AM,51.8,35.6,54,30.20,10.0,West,8.1,-,N/A,,Clear,260,2013-05-13 13:15:00
8:35 AM,53.6,37.4,54,30.20,10.0,West,6.9,-,N/A,,Clear,260,2013-05-13 13:35:00
8:55 AM,55.4,37.4,51,30.21,10.0,West,9.2,-,N/A,,Clear,260,2013-05-13 13:55:00
9:15 AM,55.4,37.4,51,30.20,10.0,West,6.9,-,N/A,,Clear,270,2013-05-13 14:15:00
9:35 AM,57.2,35.6,44,30.20,10.0,West,6.9,-,N/A,,Clear,260,2013-05-13 14:35:00
9:55 AM,59.0,35.6,42,30.21,10.0,WSW,6.9,-,N/A,,Clear,240,2013-05-13 14:55:00
10:15 AM,60.8,33.8,36,30.21,10.0,WNW,6.9,-,N/A,,Clear,300,2013-05-13 15:15:00
10:35 AM,60.8,33.8,36,30.21,10.0,WSW,6.9,-,N/A,,Clear,250,2013-05-13 15:35:00
10:55 AM,62.6,32.0,32,30.21,10.0,SSW,3.5,-,N/A,,Clear,210,2013-05-13 15:55:00
11:15 AM,62.6,35.6,37,30.21,10.0,Calm,Calm,-,N/A,,Clear,0,2013-05-13 16:15:00
11:35 AM,62.6,33.8,34,30.21,10.0,SW,6.9,-,N/A,,Clear,220,2013-05-13 16:35:00
11:55 AM,62.6,33.8,34,30.20,10.0,SW,6.9,-,N/A,,Clear,230,2013-05-13 16:55:00
12:15 PM,64.4,35.6,34,30.20,10.0,West,8.1,-,N/A,,Clear,270,2013-05-13 17:15:00
12:35 PM,64.4,32.0,30,30.20,10.0,West,6.9,-,N/A,,Clear,270,2013-05-13 17:35:00
12:55 PM,66.2,33.8,30,30.19,10.0,West,9.2,-,N/A,,Clear,280,2013-05-13 17:55:00
1:15 PM,64.4,30.2,28,30.18,10.0,Calm,Calm,-,N/A,,Clear,0,2013-05-13 18:15:00
1:35 PM,66.2,30.2,26,30.17,10.0,SW,5.8,-,N/A,,Clear,220,2013-05-13 18:35:00
1:55 PM,66.2,32.0,28,30.16,10.0,WSW,4.6,-,N/A,,Clear,240,2013-05-13 18:55:00
2:15 PM,68.0,32.0,26,30.16,10.0,SW,5.8,-,N/A,,Clear,230,2013-05-13 19:15:00
2:35 PM,69.8,33.8,27,30.15,10.0,WSW,6.9,-,N/A,,Clear,240,2013-05-13 19:35:00
3:35 PM,69.8,33.8,27,30.13,10.0,SW,4.6,-,N/A,,Clear,230,2013-05-13 20:35:00
3:55 PM,69.8,35.6,28,30.12,10.0,SW,8.1,-,N/A,,Clear,220,2013-05-13 20:55:00
4:15 PM,69.8,33.8,27,30.11,10.0,SSW,5.8,9.2,N/A,,Clear,210,2013-05-13 21:15:00
4:35 PM,69.8,35.6,28,30.10,10.0,West,9.2,-,N/A,,Clear,260,2013-05-13 21:35:00
4:55 PM,69.8,33.8,27,30.10,10.0,South,5.8,-,N/A,,Clear,180,2013-05-13 21:55:00
5:15 PM,69.8,33.8,27,30.10,10.0,SSW,5.8,-,N/A,,Clear,200,2013-05-13 22:15:00
5:35 PM,66.2,37.4,35,30.09,10.0,SW,9.2,-,N/A,,Clear,230,2013-05-13 22:35:00
5:55 PM,66.2,35.6,32,30.08,10.0,South,9.2,-,N/A,,Clear,190,2013-05-13 22:55:00
6:35 PM,66.2,37.4,35,30.08,10.0,South,8.1,-,N/A,,Clear,190,2013-05-13 23:35:00
6:55 PM,64.4,37.4,37,30.08,10.0,South,6.9,-,N/A,,Clear,190,2013-05-13 23:55:00
7:15 PM,62.6,41.0,45,30.07,10.0,South,6.9,-,N/A,,Clear,190,2013-05-14 00:15:00
7:35 PM,60.8,41.0,48,30.08,10.0,South,4.6,-,N/A,,Clear,180,2013-05-14 00:35:00
7:55 PM,59.0,42.8,55,30.08,10.0,South,5.8,-,N/A,,Clear,170,2013-05-14 00:55:00
8:15 PM,60.8,42.8,52,30.07,10.0,South,8.1,-,N/A,,Clear,170,2013-05-14 01:15:00
8:35 PM,60.8,41.0,48,30.07,10.0,SSE,6.9,-,N/A,,Scattered Clouds,150,2013-05-14 01:35:00
8:55 PM,60.8,39.2,45,30.07,10.0,SSE,9.2,-,N/A,,Scattered Clouds,160,2013-05-14 01:55:00
9:15 PM,59.0,41.0,51,30.07,10.0,SSE,8.1,-,N/A,,Clear,150,2013-05-14 02:15:00
9:35 PM,59.0,41.0,51,30.07,10.0,SSE,9.2,-,N/A,,Clear,160,2013-05-14 02:35:00
9:55 PM,57.2,41.0,55,30.06,10.0,South,10.4,-,N/A,,Clear,170,2013-05-14 02:55:00
10:15 PM,57.2,41.0,55,30.06,10.0,SSE,10.4,-,N/A,,Clear,160,2013-05-14 03:15:00
10:35 PM,57.2,39.2,51,30.05,10.0,SSE,10.4,-,N/A,,Clear,160,2013-05-14 03:35:00
10:55 PM,55.4,41.0,58,30.05,10.0,SSE,11.5,-,N/A,,Clear,160,2013-05-14 03:55:00
11:15 PM,55.4,41.0,58,30.05,10.0,SSE,8.1,-,N/A,,Clear,150,2013-05-14 04:15:00
11:35 PM,55.4,41.0,58,30.05,10.0,SSE,8.1,-,N/A,,Clear,150,2013-05-14 04:35:00
11:55 PM,53.6,41.0,62,30.05,10.0,SSE,8.1,-,N/A,,Clear,150,2013-05-14 04:55:00